| time (UTC) | temp C | wind direction | speed KPH | gust KPH | rain 1hr cm | rain 24hr cm | rain mn cm | humidity % | barometer mb |
| 20260508184635 | 12 | 288 | 0.0 | 0.0 | 0.00 | 0.23 | 0.23 | 93 | 1010.4 |
| 20260508183130 | 11 | 333 | 0.0 | 0.0 | 0.18 | 0.23 | 0.23 | 94 | 1010.5 |
| 20260508181630 | 11 | 354 | 0.0 | 0.0 | 0.13 | 0.20 | 0.20 | 94 | 1010.8 |
| 20260508180127 | 11 | 320 | 0.0 | 0.0 | 0.30 | 0.15 | 0.15 | 91 | 1011.0 |
| 20260508174624 | 11 | 293 | 0.0 | 1.6 | 0.00 | 0.10 | 0.10 | 87 | 1010.7 |
| 20260508173119 | 12 | 270 | 0.0 | 3.2 | 0.00 | 0.10 | 0.10 | 85 | 1010.7 |
| 20260508171615 | 13 | 317 | 1.6 | 1.6 | 0.00 | 0.10 | 0.10 | 84 | 1010.7 |
| 20260508170113 | 12 | 301 | 0.0 | 1.6 | 0.00 | 0.10 | 0.10 | 86 | 1011.3 |
| 20260508164608 | 12 | 291 | 1.6 | 6.4 | 0.00 | 0.10 | 0.10 | 86 | 1011.2 |
| 20260508163105 | 11 | 140 | 3.2 | 3.2 | 0.00 | 0.10 | 0.10 | 87 | 1011.7 |
| 20260508161602 | 11 | 292 | 0.0 | 1.6 | 0.00 | 0.08 | 0.08 | 86 | 1012.1 |
| 20260508160100 | 11 | 230 | 0.0 | 3.2 | 0.00 | 0.08 | 0.08 | 83 | 1012.0 |
| 20260508154557 | 12 | 297 | 0.0 | 1.6 | 0.00 | 0.08 | 0.08 | 79 | 1012.1 |
| 20260508153053 | 12 | 14 | 0.0 | 1.6 | 0.00 | 0.08 | 0.08 | 76 | 1012.1 |
| 20260508151548 | 12 | 301 | 0.0 | 3.2 | 0.00 | 0.08 | 0.08 | 76 | 1012.0 |
| 20260508150044 | 12 | 292 | 1.6 | 3.2 | 0.00 | 0.08 | 0.08 | 74 | 1011.9 |
| 20260508144541 | 12 | 291 | 1.6 | 3.2 | 0.00 | 0.08 | 0.08 | 75 | 1011.8 |
| 20260508143038 | 12 | 324 | 0.0 | 1.6 | 0.00 | 0.08 | 0.08 | 76 | 1011.9 |
| 20260508141534 | 12 | 306 | 0.0 | 1.6 | 0.00 | 0.08 | 0.08 | 75 | 1011.8 |
| 20260508140031 | 12 | 291 | 3.2 | 4.8 | 0.00 | 0.08 | 0.08 | 73 | 1011.9 |
| 20260508134526 | 12 | 305 | 1.6 | 3.2 | 0.00 | 0.08 | 0.08 | 75 | 1011.7 |
| 20260508133023 | 11 | 234 | 0.0 | 1.6 | 0.00 | 0.08 | 0.08 | 76 | 1012.1 |
| 20260508131518 | 11 | 266 | 0.0 | 1.6 | 0.00 | 0.08 | 0.08 | 75 | 1011.8 |
| 20260508130015 | 11 | 286 | 0.0 | 1.6 | 0.00 | 0.08 | 0.08 | 76 | 1012.0 |
| 20260508124512 | 11 | 265 | 0.0 | 0.0 | 0.00 | 0.08 | 0.08 | 77 | 1012.0 |
| 20260508123010 | 11 | 260 | 0.0 | 6.4 | 0.00 | 0.08 | 0.08 | 78 | 1011.9 |
| 20260508121508 | 10 | 348 | 0.0 | 1.6 | 0.00 | 0.08 | 0.08 | 81 | 1011.9 |
| 20260508120007 | 9 | 321 | 0.0 | 1.6 | 0.00 | 0.08 | 0.08 | 81 | 1011.8 |
| 20260508114503 | 8 | 305 | 1.6 | 1.6 | 0.00 | 0.08 | 0.08 | 84 | 1011.5 |
| 20260508113000 | 8 | 318 | 1.6 | 1.6 | 0.00 | 0.08 | 0.08 | 85 | 1011.1 |
| 20260508111456 | -17 | 0.0 | 0.0 | 0.00 | 0.00 | 0.00 | 1011.2 | ||
| 20260508105956 | -17 | 0.0 | 0.0 | 0.00 | 0.00 | 0.00 | 1011.2 | ||
| 20260508104453 | -17 | 0.0 | 0.0 | 0.00 | 0.00 | 0.00 | 1011.2 | ||
| 20260508102949 | -17 | 0.0 | 0.0 | 0.00 | 0.00 | 0.00 | 1011.0 | ||
| 20260508101448 | -17 | 0.0 | 0.0 | 0.00 | 0.08 | 0.08 | 1011.3 | ||
| 20260508095945 | -17 | 0.0 | 0.0 | 0.00 | 0.08 | 0.08 | 1011.1 | ||
| 20260508094442 | -17 | 0.0 | 0.0 | 0.00 | 0.08 | 0.08 | 1011.1 | ||
| 20260508092940 | -17 | 0.0 | 0.0 | 0.00 | 0.08 | 0.08 | 1011.1 | ||
| 20260508091438 | 6 | 60 | 0.0 | 0.0 | 0.00 | 0.08 | 0.08 | 94 | 1011.1 |
| 20260508085935 | 6 | 69 | 0.0 | 0.0 | 0.00 | 0.08 | 0.08 | 92 | 1011.1 |
| 20260508084431 | 7 | 113 | 0.0 | 0.0 | 0.00 | 0.08 | 0.08 | 92 | 1011.0 |
| 20260508082926 | 7 | 84 | 0.0 | 0.0 | 0.00 | 0.08 | 0.08 | 91 | 1011.1 |
| 20260508081424 | 7 | 88 | 0.0 | 0.0 | 0.00 | 0.08 | 0.08 | 91 | 1011.2 |
| 20260508075920 | 7 | 18 | 0.0 | 0.0 | 0.00 | 0.08 | 0.08 | 91 | 1011.3 |
| 20260508074419 | 7 | 100 | 0.0 | 0.0 | 0.00 | 0.08 | 0.08 | 91 | 1011.4 |
| 20260508072916 | 7 | 81 | 0.0 | 0.0 | 0.00 | 0.08 | 0.08 | 90 | 1011.6 |
| 20260508071413 | 7 | 54 | 0.0 | 0.0 | 0.00 | 0.08 | 0.08 | 89 | 1011.6 |
| 20260508065912 | 8 | 338 | 0.0 | 0.0 | 0.00 | 0.08 | 0.08 | 88 | 1011.6 |
| 20260508064411 | 8 | 111 | 0.0 | 0.0 | 0.00 | 0.08 | 0.08 | 88 | 1011.6 |
| 20260508062909 | 7 | 310 | 0.0 | 0.0 | 0.00 | 0.08 | 0.08 | 91 | 1011.7 |
| 20260508061407 | 8 | 309 | 0.0 | 1.6 | 0.00 | 0.08 | 0.08 | 93 | 1011.7 |
| 20260508055907 | 7 | 133 | 0.0 | 3.2 | 0.00 | 0.08 | 0.08 | 94 | 1011.9 |
| 20260508054404 | 7 | 46 | 0.0 | 0.0 | 0.00 | 0.08 | 0.08 | 94 | 1012.1 |
| 20260508052901 | 7 | 42 | 0.0 | 0.0 | 0.00 | 0.08 | 0.08 | 93 | 1012.4 |
| 20260508051356 | 8 | 53 | 0.0 | 0.0 | 0.00 | 0.08 | 0.08 | 93 | 1012.4 |
| 20260508045851 | 8 | 98 | 0.0 | 1.6 | 0.00 | 0.08 | 0.08 | 92 | 1012.7 |
| 20260508044348 | 8 | 314 | 0.0 | 1.6 | 0.18 | 0.08 | 0.08 | 92 | 1013.3 |
| 20260508042844 | 8 | 296 | 3.2 | 9.7 | 0.13 | 0.05 | 0.05 | 89 | 1013.2 |
| 20260508041341 | 8 | 300 | 0.0 | 1.6 | 0.18 | 0.03 | 0.03 | 90 | 1012.9 |
| 20260508035838 | 8 | 305 | 0.0 | 0.0 | 0.00 | 0.00 | 0.00 | 89 | 1012.5 |
| 20260508034335 | 8 | 4 | 0.0 | 0.0 | 0.00 | 0.00 | 0.00 | 87 | 1012.4 |
| 20260508032833 | 8 | 64 | 0.0 | 0.0 | 0.00 | 0.00 | 0.00 | 86 | 1012.5 |
| 20260508031330 | 8 | 64 | 0.0 | 0.0 | 0.00 | 0.00 | 0.00 | 87 | 1012.3 |
| 20260508025826 | 8 | 64 | 0.0 | 0.0 | 0.00 | 0.00 | 0.00 | 87 | 1012.6 |
| 20260508024322 | 8 | 68 | 0.0 | 0.0 | 0.00 | 0.00 | 0.00 | 85 | 1012.6 |
| 20260508022818 | 7 | 68 | 0.0 | 0.0 | 0.00 | 0.00 | 0.00 | 86 | 1012.6 |
| 20260508021313 | 8 | 68 | 0.0 | 0.0 | 0.00 | 0.00 | 0.00 | 85 | 1012.6 |
| 20260508015810 | 8 | 76 | 0.0 | 0.0 | 0.00 | 0.00 | 0.00 | 86 | 1012.6 |
| 20260508014308 | 9 | 101 | 0.0 | 0.0 | 0.00 | 0.00 | 0.00 | 80 | 1012.5 |
| 20260508012803 | 10 | 293 | 0.0 | 0.0 | 0.00 | 0.00 | 0.00 | 68 | 1012.7 |
| 20260508011301 | 10 | 284 | 0.0 | 0.0 | 0.00 | 0.00 | 0.00 | 66 | 1012.1 |
| 20260508005758 | 11 | 315 | 1.6 | 3.2 | 0.00 | 0.00 | 0.00 | 61 | 1012.5 |
| 20260508004258 | 11 | 323 | 0.0 | 1.6 | 0.00 | 0.00 | 0.00 | 59 | 1012.5 |
| 20260508002754 | 11 | 274 | 4.8 | 11.3 | 0.00 | 0.00 | 0.00 | 57 | 1012.5 |
| 20260508001249 | 11 | 309 | 1.6 | 3.2 | 0.00 | 0.00 | 0.00 | 54 | 1012.4 |
| 20260507235745 | 12 | 300 | 1.6 | 1.6 | 0.00 | 0.00 | 0.00 | 51 | 1012.4 |
| 20260507234242 | 12 | 296 | 4.8 | 6.4 | 0.00 | 0.00 | 0.00 | 48 | 1011.9 |
| 20260507232739 | 12 | 313 | 1.6 | 3.2 | 0.00 | 0.00 | 0.00 | 46 | 1011.9 |
| 20260507231235 | 13 | 321 | 1.6 | 1.6 | 0.00 | 0.00 | 0.00 | 45 | 1011.8 |
| 20260507225734 | 13 | 9 | 0.0 | 4.8 | 0.00 | 0.00 | 0.00 | 44 | 1011.7 |
| 20260507224229 | 14 | 302 | 3.2 | 3.2 | 0.00 | 0.00 | 0.00 | 43 | 1011.7 |
| 20260507222725 | 15 | 280 | 1.6 | 4.8 | 0.00 | 0.00 | 0.00 | 40 | 1011.5 |
| 20260507221220 | 15 | 295 | 6.4 | 11.3 | 0.00 | 0.00 | 0.00 | 41 | 1011.6 |
| 20260507215717 | 13 | 295 | 1.6 | 4.8 | 0.00 | 0.00 | 0.00 | 41 | 1011.7 |
| 20260507214214 | 15 | 313 | 3.2 | 4.8 | 0.00 | 0.00 | 0.00 | 39 | 1011.7 |
| 20260507212709 | 14 | 277 | 0.0 | 4.8 | 0.00 | 0.00 | 0.00 | 40 | 1011.7 |
| 20260507211210 | 14 | 322 | 4.8 | 9.7 | 0.00 | 0.00 | 0.00 | 39 | 1011.8 |
| 20260507205706 | 15 | 260 | 4.8 | 6.4 | 0.00 | 0.00 | 0.00 | 40 | 1011.8 |
| 20260507204203 | 16 | 306 | 1.6 | 6.4 | 0.00 | 0.00 | 0.00 | 40 | 1011.5 |
| 20260507202659 | 16 | 208 | 4.8 | 6.4 | 0.00 | 0.00 | 0.00 | 38 | 1011.7 |
| 20260507201200 | 16 | 321 | 0.0 | 6.4 | 0.00 | 0.00 | 0.00 | 41 | 1012.0 |
| 20260507195654 | 16 | 321 | 1.6 | 3.2 | 0.00 | 0.00 | 0.00 | 39 | 1012.0 |
| 20260507194150 | 17 | 289 | 4.8 | 11.3 | 0.00 | 0.00 | 0.00 | 37 | 1012.0 |
| 20260507192646 | 16 | 333 | 3.2 | 4.8 | 0.00 | 0.00 | 0.00 | 40 | 1012.1 |
| 20260507191142 | 16 | 303 | 4.8 | 12.9 | 0.00 | 0.00 | 0.00 | 42 | 1012.0 |
| 20260507185642 | 15 | 307 | 3.2 | 4.8 | 0.00 | 0.00 | 0.00 | 41 | 1012.5 |